Temp
12 12 13 13 13 13 14 15 14 14 15 16 16 17 17 18 18 18 19 20 21 21 21 21 21 21 22 23 23 23 27 27 26 26 27 25 26 24 23 23 22 20 20 19 15
11 12 12 13 13 13 14 14 15 15 15 15 16 17 17 18 18 19 20 20 20 21 20 21 22 22 24 24 24 26 27 27 27 27 27 26 26 25 24 24 23 20 17 16 13
11 11 11 12 13 13 14 14 15 16 16 16 16 16 17 17 18 21 21 21 21 21 20 21 21 22 24 24 25 26 27 27 27 26 26 26 26 25 25 27 26 23 18 15 13
10 11 12 12 12 13 14 14 15 16 16 17 17 16 17 17 21 20 21 20 21 21 19 20 21 23 25 25 25 25 26 26 26 25 25 26 26 25 25 27 24 24 19 16 14
10 11 12 12 13 13 14 14 15 16 16 17 17 17 16 16 18 20 20 21 21 20 20 21 22 23 25 25 24 25 27 26 25 24 24 25 26 26 26 26 21 20 18 17 15
9 10 11 12 12 13 14 15 15 16 16 17 17 17 16 17 19 20 20 21 21 20 21 21 22 23 24 24 25 25 25 26 25 25 24 25 26 24 26 23 19 18 18 17 16
8 9 10 12 12 13 14 15 16 16 16 17 16 17 16 18 19 19 20 20 18 20 21 21 22 22 24 25 24 24 25 26 25 25 26 25 26 25 25 21 20 19 18 17 16
9 10 10 11 12 13 14 14 15 16 17 16 16 16 16 19 19 19 19 19 18 19 21 21 21 22 23 23 24 25 25 25 27 25 25 25 27 28 22 22 21 20 18 17 16
7 9 10 11 11 12 13 14 15 16 16 16 15 15 17 18 18 19 20 19 19 19 19 20 21 22 22 24 25 25 25 25 26 26 27 26 27 27 22 22 23 20 19 17 16
7 8 9 10 11 12 13 14 15 15 15 15 14 14 17 19 17 18 19 18 18 19 20 20 22 23 24 25 24 25 25 26 26 26 26 26 26 28 26 23 23 22 20 17 16
5 6 8 9 9 9 12 14 13 14 13 13 14 14 16 17 18 18 18 18 19 20 22 21 23 22 24 25 26 27 25 26 26 27 26 26 26 28 27 24 23 22 20 17 17
4 5 6 8 9 8 9 7 4 5 7 14 14 13 17 15 15 19 18 19 20 21 22 21 21 24 25 25 24 24 24 25 26 26 25 26 26 28 27 26 25 23 20 18 17
4 4 5 7 8 8 7 6 6 6 7 12 13 15 16 15 17 19 18 20 21 21 22 21 23 23 23 22 23 24 24 25 25 25 25 25 25 27 27 25 22 21 21 20 18
3 3 4 6 6 7 6 6 7 7 13 17 15 15 15 16 18 19 19 20 22 22 22 22 24 22 22 22 23 23 25 25 25 24 24 26 24 27 27 26 26 25 21 21 19
2 2 2 2 3 4 5 7 8 7 11 18 17 15 16 17 20 20 19 20 22 22 22 22 22 22 22 22 24 23 25 24 24 24 24 24 24 26 26 26 27 27 26 21 20
2 2 2 1 1 3 5 7 8 12 10 17 18 18 18 17 19 19 19 20 21 22 22 23 22 23 23 24 24 24 23 23 23 23 22 23 24 25 27 26 27 27 26 23 20
2 2 2 1 2 3 6 6 11 8 16 18 19 20 19 20 19 20 19 19 20 19 20 21 22 22 22 22 23 23 22 21 21 21 21 25 24 25 27 27 27 27 25 23 20
2 2 2 3 2 3 3 9 8 14 15 18 19 19 19 20 20 20 20 20 21 22 22 21 20 22 22 23 22 21 22 21 19 21 22 23 22 24 26 26 25 24 24 22 21
-0 1 2 3 2 2 4 7 10 14 16 17 17 17 17 19 19 20 20 21 22 22 21 21 21 24 23 23 24 22 22 24 22 19 22 24 24 24 25 26 26 25 24 23 21
-1 -1 0 1 -0 1 3 6 10 13 15 16 14 16 16 18 19 19 20 21 21 22 22 22 20 22 23 23 23 24 23 20 21 18 19 23 24 24 25 25 26 26 25 24 23
-1 -1 1 1 0 0 2 4 7 8 10 11 12 12 15 16 18 19 20 21 22 22 22 22 21 22 22 21 22 21 22 22 22 22 21 21 24 26 26 26 26 27 25 25 23
-1 0 0 1 1 1 2 5 5 6 7 9 10 10 11 13 16 18 18 20 22 21 20 21 21 20 20 22 23 23 22 22 20 21 21 23 24 26 26 26 26 26 24 23 23
-2 -1 -0 -1 1 3 4 5 5 6 6 7 7 10 11 11 13 15 18 20 20 20 20 21 20 19 20 21 20 20 22 22 22 23 21 20 22 25 25 25 24 25 23 22 22
-1 -1 0 -1 1 2 3 4 4 4 5 6 6 6 9 10 12 12 16 19 19 19 20 20 20 20 20 21 21 19 21 22 22 21 21 22 23 24 24 25 24 23 23 23 22
-1 -1 2 2 2 2 1 2 3 4 6 6 6 6 7 8 10 11 14 16 17 17 17 19 19 20 21 22 23 21 21 21 20 22 21 22 23 25 25 25 25 23 22 20 20
-1 -1 0 2 2 2 2 2 3 5 5 4 2 6 8 9 10 11 14 15 17 17 17 18 19 20 20 21 22 21 22 21 21 22 23 23 23 26 25 25 23 21 20 19 19
-1 -1 -1 1 2 2 3 2 1 1 2 4 6 6 7 10 11 11 12 11 12 12 15 17 18 19 18 20 21 19 22 22 22 22 23 22 23 23 21 21 20 19 18 18 17
Height
1558 1556 1553 1550 1549 1548 1545 1542 1539 1538 1537 1535 1533 1532 1531 1530 1529 1529 1527 1529 1530 1530 1531 1533 1535 1536 1537 1537 1536 1534 1524 1523 1526 1525 1524 1529 1530 1534 1535 1536 1539 1541 1543 1545 1546
1558 1555 1553 1551 1550 1546 1543 1541 1539 1537 1534 1533 1531 1530 1528 1527 1526 1524 1524 1525 1526 1529 1531 1533 1534 1535 1535 1534 1534 1529 1522 1522 1525 1524 1523 1527 1528 1530 1534 1534 1537 1540 1542 1544 1546
1556 1554 1553 1551 1548 1545 1542 1539 1537 1535 1533 1530 1529 1528 1527 1525 1524 1519 1518 1520 1523 1526 1530 1533 1533 1534 1532 1531 1530 1527 1521 1522 1523 1525 1526 1525 1526 1529 1529 1525 1528 1534 1541 1543 1545
1555 1553 1550 1547 1546 1543 1540 1538 1535 1533 1531 1529 1526 1525 1525 1525 1522 1517 1517 1519 1520 1524 1528 1531 1532 1531 1527 1527 1527 1526 1523 1524 1524 1525 1525 1523 1523 1526 1526 1523 1527 1530 1535 1540 1542
1552 1550 1547 1545 1543 1540 1538 1536 1534 1531 1529 1527 1524 1522 1523 1523 1518 1517 1516 1517 1518 1521 1525 1528 1529 1529 1525 1524 1527 1526 1522 1524 1524 1525 1525 1524 1524 1523 1521 1523 1527 1530 1534 1538 1541
1550 1547 1545 1544 1541 1538 1536 1534 1531 1529 1527 1525 1523 1521 1520 1520 1514 1513 1513 1513 1514 1517 1522 1525 1526 1528 1525 1524 1524 1522 1523 1522 1523 1523 1524 1524 1521 1525 1520 1523 1528 1530 1533 1537 1540
1548 1544 1542 1540 1538 1535 1533 1531 1529 1527 1525 1522 1521 1519 1517 1513 1511 1511 1511 1511 1512 1517 1520 1523 1525 1527 1523 1523 1524 1524 1522 1520 1520 1520 1519 1523 1521 1519 1518 1523 1527 1530 1533 1537 1540
1545 1543 1539 1537 1534 1530 1529 1528 1526 1523 1522 1520 1519 1518 1513 1508 1507 1508 1510 1512 1512 1517 1521 1522 1524 1524 1524 1522 1522 1521 1519 1518 1510 1518 1519 1521 1512 1505 1517 1521 1524 1528 1532 1536 1539
1545 1542 1540 1536 1532 1528 1527 1525 1522 1520 1518 1517 1517 1517 1511 1507 1506 1505 1506 1510 1512 1516 1519 1520 1522 1521 1522 1518 1516 1514 1516 1513 1511 1513 1512 1516 1506 1506 1515 1518 1519 1525 1530 1535 1538
1542 1539 1536 1534 1530 1525 1523 1520 1518 1516 1515 1515 1514 1518 1508 1508 1506 1504 1504 1507 1510 1515 1519 1519 1518 1515 1513 1509 1512 1509 1513 1505 1509 1507 1511 1507 1507 1502 1508 1514 1516 1520 1526 1531 1535
1540 1536 1534 1533 1530 1524 1521 1518 1520 1520 1516 1515 1514 1510 1505 1506 1505 1504 1503 1505 1508 1511 1509 1512 1511 1506 1502 1503 1499 1497 1503 1505 1501 1500 1507 1505 1503 1499 1501 1509 1512 1515 1521 1527 1530
1538 1535 1533 1533 1530 1528 1525 1523 1531 1533 1520 1510 1506 1504 1501 1504 1505 1502 1503 1504 1504 1501 1504 1510 1503 1499 1501 1500 1504 1503 1505 1504 1498 1501 1509 1500 1502 1494 1498 1501 1504 1509 1516 1521 1526
1538 1534 1531 1531 1531 1530 1528 1529 1530 1528 1526 1502 1498 1497 1495 1497 1495 1495 1499 1499 1496 1497 1495 1498 1494 1499 1501 1503 1503 1500 1502 1501 1502 1499 1504 1502 1501 1492 1493 1498 1503 1506 1510 1515 1519
1537 1533 1531 1530 1534 1532 1532 1531 1530 1529 1518 1495 1494 1490 1489 1491 1485 1487 1491 1495 1493 1489 1492 1490 1489 1495 1499 1496 1496 1499 1496 1497 1499 1503 1507 1493 1506 1480 1484 1492 1494 1496 1504 1508 1512
1536 1533 1531 1529 1533 1535 1534 1531 1530 1529 1529 1490 1488 1486 1486 1487 1482 1476 1483 1488 1482 1484 1487 1481 1486 1490 1490 1487 1489 1492 1489 1497 1497 1498 1498 1494 1504 1482 1481 1488 1484 1486 1488 1499 1505
1535 1532 1531 1532 1533 1534 1531 1530 1530 1530 1529 1489 1484 1483 1484 1483 1481 1479 1480 1482 1481 1480 1480 1476 1480 1480 1479 1482 1484 1489 1493 1496 1498 1497 1504 1494 1490 1482 1473 1481 1478 1481 1483 1490 1498
1534 1532 1531 1531 1535 1533 1531 1532 1527 1536 1495 1483 1478 1476 1476 1472 1474 1473 1474 1475 1473 1483 1476 1474 1472 1476 1478 1481 1481 1484 1494 1505 1508 1503 1502 1479 1486 1478 1466 1473 1476 1477 1480 1485 1491
1533 1532 1529 1530 1532 1532 1533 1532 1530 1496 1488 1475 1475 1474 1472 1468 1466 1466 1465 1465 1464 1460 1460 1470 1475 1465 1469 1469 1478 1480 1484 1492 1507 1495 1488 1478 1490 1473 1468 1470 1474 1477 1480 1483 1487
1530 1530 1530 1529 1530 1531 1535 1523 1501 1486 1476 1473 1472 1473 1472 1463 1464 1458 1458 1450 1449 1454 1461 1458 1455 1450 1459 1464 1466 1472 1473 1470 1481 1491 1482 1467 1471 1467 1467 1468 1469 1472 1475 1478 1483
1529 1528 1527 1526 1528 1531 1532 1508 1491 1482 1478 1474 1474 1468 1464 1459 1457 1455 1449 1442 1442 1444 1450 1447 1459 1449 1454 1458 1458 1457 1467 1483 1478 1500 1496 1470 1464 1466 1461 1463 1462 1465 1469 1473 1478
1528 1528 1526 1524 1526 1528 1517 1505 1497 1492 1494 1488 1480 1479 1464 1456 1450 1442 1440 1434 1434 1437 1445 1446 1450 1447 1450 1451 1451 1462 1459 1460 1464 1468 1477 1476 1459 1447 1451 1454 1456 1460 1464 1468 1473
1527 1526 1521 1522 1524 1519 1511 1505 1500 1493 1494 1489 1487 1486 1480 1465 1449 1440 1437 1427 1428 1432 1437 1434 1441 1448 1446 1440 1440 1440 1448 1453 1461 1466 1463 1457 1454 1441 1447 1450 1454 1457 1463 1467 1471
1522 1520 1518 1519 1512 1502 1500 1497 1496 1488 1490 1489 1485 1481 1477 1468 1458 1443 1430 1426 1426 1430 1426 1429 1436 1445 1443 1442 1442 1438 1436 1442 1448 1448 1454 1467 1456 1442 1447 1451 1455 1456 1462 1466 1469
1520 1514 1510 1509 1505 1501 1495 1488 1484 1485 1484 1484 1482 1483 1472 1465 1457 1448 1428 1421 1422 1423 1421 1421 1421 1424 1426 1413 1427 1441 1434 1433 1441 1449 1448 1440 1445 1441 1444 1448 1452 1456 1460 1463 1466
1510 1502 1500 1495 1494 1494 1496 1489 1479 1475 1475 1471 1471 1472 1466 1458 1452 1445 1433 1424 1419 1418 1418 1417 1418 1413 1408 1410 1413 1421 1426 1429 1435 1426 1439 1434 1435 1433 1435 1442 1445 1452 1457 1461 1463
1503 1498 1494 1488 1488 1486 1482 1477 1475 1469 1473 1464 1467 1460 1453 1447 1447 1438 1429 1420 1410 1414 1411 1410 1407 1406 1409 1407 1407 1412 1414 1419 1420 1423 1421 1426 1425 1423 1433 1434 1443 1449 1453 1457 1461
1492 1489 1489 1479 1478 1477 1470 1470 1468 1471 1463 1457 1453 1450 1447 1437 1441 1437 1437 1436 1433 1428 1414 1406 1403 1404 1406 1403 1404 1417 1403 1404 1410 1412 1414 1420 1420 1426 1434 1437 1441 1445 1450 1453 1457
Wind_Speed
13 13 13 14 14 12 12 14 15 15 13 12 11 10 11 12 13 15 16 12 12 10 13 12 9 7 6 6 5 3 5 3 3 3 5 7 12 5 5 6 9 9 3 6 24
15 15 13 13 13 14 14 13 14 16 16 15 13 12 11 12 14 19 16 12 13 18 12 12 12 10 11 9 6 8 5 2 1 2 2 6 13 10 8 11 11 10 7 15 23
14 15 15 15 15 15 14 14 14 14 16 18 16 13 12 10 12 7 6 13 17 16 15 11 10 12 13 10 10 5 9 2 5 7 6 7 9 8 13 9 12 15 15 21 22
14 15 16 17 17 16 16 16 15 15 15 16 19 15 12 6 3 5 5 2 17 20 16 13 12 15 15 12 10 8 9 9 8 7 8 10 4 10 16 12 4 6 21 23 22
17 17 17 17 18 18 17 17 17 16 16 16 16 16 11 6 13 11 12 11 12 24 21 17 16 15 15 15 10 11 11 7 7 9 11 9 11 10 11 8 0 12 19 22 20
20 20 19 18 19 19 18 18 18 17 17 15 13 13 10 9 9 7 10 12 15 28 24 19 12 15 10 11 15 7 9 9 5 6 8 8 9 5 3 5 8 13 17 19 19
20 22 23 22 20 20 20 18 17 17 17 14 12 10 14 16 9 8 3 4 15 25 23 20 12 13 8 12 9 7 10 7 11 9 6 9 10 11 5 7 9 12 15 17 17
19 21 23 23 23 22 20 19 17 15 15 14 13 11 10 11 11 19 11 5 17 16 16 16 13 13 11 3 8 11 10 12 13 11 7 8 12 3 4 8 10 12 14 16 17
21 21 21 22 23 22 21 18 17 15 13 12 12 6 10 8 8 9 13 10 15 17 10 11 13 15 11 14 13 14 15 16 10 12 7 12 9 5 5 8 9 12 14 16 17
23 24 26 23 22 23 21 17 13 10 10 9 10 7 8 3 6 5 9 14 13 18 14 14 13 13 13 15 18 19 18 11 17 11 12 11 13 9 7 9 9 11 14 16 19
25 25 26 24 21 22 21 12 7 2 3 7 6 9 14 9 6 6 8 16 13 21 17 21 14 19 22 20 19 14 14 19 17 6 9 13 13 13 7 10 11 11 14 17 19
26 27 27 22 16 16 16 12 10 9 14 18 21 24 29 20 12 13 9 17 17 17 21 10 21 20 19 18 19 15 16 18 14 6 10 15 14 13 10 10 11 13 15 18 20
25 27 27 25 9 14 12 18 17 13 7 13 14 16 21 22 16 22 16 23 18 20 21 22 12 21 15 17 22 20 20 17 14 10 11 12 16 15 12 9 9 11 15 19 23
24 25 26 25 6 11 4 12 14 7 5 5 5 7 8 12 13 25 25 18 17 23 21 20 22 15 23 26 23 22 18 17 15 14 15 14 15 17 14 11 10 13 17 20 24
24 23 23 20 12 8 11 7 8 3 5 3 3 3 2 13 7 15 27 25 23 20 20 23 16 20 23 25 24 23 17 18 17 16 16 14 10 15 9 14 14 16 17 21 25
23 23 22 13 12 8 9 5 3 2 8 4 3 4 5 13 11 2 18 26 20 21 22 23 18 20 23 19 23 20 9 12 10 12 16 20 17 16 13 15 12 8 10 20 25
18 21 20 17 10 11 6 4 4 4 2 9 14 10 14 10 9 14 13 21 17 19 25 22 21 15 13 19 17 22 16 12 13 14 15 17 17 16 6 8 11 10 4 16 24
16 17 17 18 12 4 4 5 7 14 21 16 18 17 18 19 18 19 18 21 29 26 14 22 20 27 17 24 19 23 21 11 17 14 16 11 11 16 12 11 10 9 8 13 21
19 16 14 13 8 6 6 9 11 13 14 18 20 22 26 20 20 15 24 25 26 30 25 18 29 18 19 19 24 23 23 21 18 6 11 13 14 4 8 10 12 10 11 15 18
18 12 9 4 7 8 7 19 18 24 24 19 22 14 24 28 24 22 20 21 27 28 27 18 16 18 22 21 22 21 17 15 13 19 18 19 17 10 15 15 15 10 11 15 15
13 8 5 5 9 9 12 12 18 35 33 10 25 24 23 22 27 25 25 24 19 25 25 26 15 14 15 23 26 12 17 18 19 16 16 15 15 14 13 13 15 13 8 13 14
6 5 5 5 7 6 11 20 16 33 33 25 30 23 25 25 22 29 31 26 23 22 26 31 17 15 24 23 26 28 25 22 12 19 16 15 14 8 14 14 12 12 11 13 15
6 13 14 12 7 12 22 23 29 27 29 28 29 29 24 27 22 23 26 31 23 15 22 24 20 16 18 13 13 20 26 26 23 16 22 15 14 7 9 9 13 14 15 12 11
10 3 9 14 22 18 20 24 23 29 32 39 29 32 28 31 23 16 20 19 21 26 33 24 23 27 20 31 17 19 25 27 24 17 17 21 17 15 14 13 13 17 17 15 11
13 9 18 9 12 15 18 16 23 24 26 39 26 33 31 27 27 26 27 23 14 13 8 19 23 27 31 28 20 21 22 28 27 29 25 21 23 20 17 16 19 22 19 13 10
19 6 10 23 28 22 20 23 27 30 26 29 21 28 28 34 27 23 10 11 12 2 13 16 20 25 26 26 26 24 25 27 32 29 32 27 23 20 25 21 16 21 21 17 12
23 29 26 18 21 16 17 18 10 17 22 30 32 26 29 29 38 43 34 24 21 16 12 12 16 15 22 23 26 23 25 28 23 24 25 24 23 11 11 14 22 22 19 16 11
Wind_Direction
12 8 3 1 358 358 350 343 341 340 336 331 321 303 292 281 275 271 261 239 228 226 204 205 205 207 198 204 212 253 240 151 98 205 97 173 207 190 211 185 193 187 149 145 165
2 2 359 356 352 351 353 348 339 334 333 332 326 311 302 295 283 270 262 248 224 210 194 191 200 198 201 205 209 253 256 113 279 309 300 204 221 172 204 201 199 180 154 148 159
351 349 348 349 349 348 345 341 338 333 329 328 325 317 306 307 305 260 224 217 214 201 206 204 201 199 213 208 198 197 260 38 275 271 261 231 220 209 225 222 226 207 175 164 167
346 339 336 339 341 341 340 336 332 331 328 325 320 314 305 294 273 187 161 174 205 200 193 197 200 206 216 207 200 240 242 276 291 277 253 236 246 219 240 258 53 212 175 171 176
338 334 331 329 330 331 334 333 329 326 325 324 320 311 299 258 253 256 248 270 222 194 189 194 204 214 221 214 195 231 257 277 283 239 246 238 234 252 255 253 139 151 164 175 177
335 330 326 325 324 323 325 325 324 325 323 323 322 312 283 250 260 266 263 242 225 194 193 195 212 215 246 224 216 216 254 260 246 219 199 226 232 246 246 163 142 154 168 176 177
338 334 329 323 319 320 321 319 317 320 322 320 320 315 279 259 254 245 285 199 194 191 195 197 206 197 210 217 217 226 236 218 218 209 205 225 236 233 224 155 163 167 173 174 175
339 336 335 334 326 318 320 320 314 313 314 313 312 310 267 275 249 241 232 263 190 188 202 203 200 214 222 182 193 214 228 222 188 194 193 214 263 165 149 192 185 182 180 178 177
343 341 345 344 338 328 325 324 315 309 303 301 303 303 272 277 276 259 230 217 201 196 195 188 196 211 198 214 211 207 224 219 166 205 188 218 270 143 163 190 193 192 184 183 180
352 346 348 357 350 337 339 336 319 304 292 289 272 279 259 290 294 267 216 199 175 186 191 195 204 210 220 212 219 216 222 220 234 175 223 206 251 263 198 204 208 194 184 185 186
353 348 348 0 360 358 355 5 2 303 324 270 264 264 279 291 313 274 224 180 179 186 200 202 214 214 208 220 240 256 213 228 216 183 236 235 255 271 224 214 214 199 187 186 188
350 347 345 3 5 11 14 66 48 324 304 283 269 259 262 267 274 261 202 185 192 201 204 189 225 223 229 220 231 224 224 232 243 173 240 256 255 249 232 245 221 204 194 188 184
347 344 342 355 35 31 45 35 3 349 272 289 251 251 245 221 232 240 200 211 207 208 203 216 224 227 215 216 222 222 228 230 235 194 236 262 257 242 219 221 207 207 200 194 191
346 344 345 351 34 21 37 5 352 345 280 267 234 257 220 216 242 230 213 203 217 220 214 235 230 211 213 222 215 221 220 240 241 241 250 205 254 230 214 214 219 207 200 199 195
341 342 348 358 354 360 315 348 354 332 312 69 202 267 231 200 341 221 206 208 229 213 204 224 217 207 221 220 216 233 215 228 236 247 252 222 246 258 179 229 236 232 203 198 198
333 335 342 349 350 329 318 350 117 227 242 285 245 225 208 221 236 306 196 216 229 229 218 238 212 223 226 225 220 227 206 218 231 244 239 236 238 243 209 226 255 248 255 194 195
320 324 329 337 327 342 310 330 181 194 272 253 249 229 241 237 228 225 204 203 204 206 224 219 223 222 225 214 213 217 210 223 226 224 240 233 232 239 229 228 258 265 202 186 187
312 316 318 321 338 14 317 222 204 237 240 272 290 271 255 249 240 223 226 223 218 217 223 220 219 213 196 213 198 206 205 211 222 227 232 186 231 235 229 239 242 252 214 176 181
318 317 318 301 321 171 208 214 210 244 246 252 260 253 255 248 245 226 222 229 223 219 224 218 230 201 208 204 216 201 214 218 246 293 267 206 220 250 204 222 219 231 196 179 179
319 320 327 248 218 189 205 228 233 250 274 280 268 257 252 243 235 233 230 234 236 221 225 228 241 208 202 205 213 213 211 207 227 229 234 235 228 233 199 217 208 212 204 185 179
316 311 297 217 191 201 224 232 261 262 270 283 262 268 273 263 253 240 231 237 238 222 214 229 225 202 194 207 208 192 213 212 210 219 228 236 225 217 226 213 214 216 209 188 183
287 267 257 202 221 217 241 246 257 266 268 270 262 267 276 271 275 247 244 236 216 223 210 218 219 219 211 218 219 215 213 203 209 206 232 244 239 152 222 219 211 217 182 164 162
257 266 260 248 252 252 259 263 267 267 258 262 266 254 260 262 269 258 253 244 250 241 213 212 220 223 218 205 218 229 212 216 222 228 221 221 223 169 180 196 199 192 176 170 161
254 261 239 222 246 265 273 271 269 266 265 258 260 261 267 253 263 269 267 247 246 230 228 216 218 219 215 218 196 213 217 218 212 222 222 224 218 178 194 200 193 192 190 186 178
240 236 243 254 242 241 253 266 269 274 269 256 247 249 247 259 248 258 257 265 245 229 228 217 218 225 230 226 216 211 211 210 217 226 223 224 225 234 203 211 208 196 192 196 196
262 234 247 251 258 264 264 264 267 271 267 261 261 257 248 237 247 256 266 315 251 200 215 222 221 226 231 232 224 222 214 211 217 221 231 234 240 226 237 242 187 194 195 194 193
269 261 241 245 249 256 257 265 273 301 296 264 260 250 257 244 236 247 266 281 288 288 285 218 220 214 225 220 224 227 221 213 213 222 226 229 234 174 191 196 195 190 192 188 186